CEB1024 RPLL-RPMP

Flight info

Callsign CEB1024
Flight time 1h 14m
Altitude 37000
Route VERDE4V VERDE A461 SAJ W3 IOO B472 ALDIN
Aircraft A320/M-SDE3FGHIRWY/LB1

Departure

Time 2026-05-04 05:51
Airport Ninoy Aquino International Airport (RPLL)

Arrival

Time 2026-05-04 07:06
Airport Pagadian Airport (RPMP)
Time Latitude Longitude Altitude Speed Heading
2026-05-04 05:21 14.52299 121.00902 82 ft 0 kts 44°
2026-05-04 05:33 14.52298 121.00901 82 ft 0 kts 44°
2026-05-04 05:35 14.52288 121.00891 82 ft 2 kts 44°
2026-05-04 05:35 14.52277 121.00880 82 ft 2 kts 44°
2026-05-04 05:36 14.52266 121.00870 82 ft 2 kts 44°
2026-05-04 05:36 14.52255 121.00858 82 ft 2 kts 44°
2026-05-04 05:36 14.52244 121.00848 82 ft 2 kts 44°
2026-05-04 05:36 14.52237 121.00841 82 ft 2 kts 43°
2026-05-04 05:37 14.52224 121.00832 82 ft 2 kts 18°
2026-05-04 05:37 14.52209 121.00830 82 ft 2 kts 359°
2026-05-04 05:37 14.52194 121.00832 82 ft 2 kts 339°
2026-05-04 05:38 14.52176 121.00845 82 ft 1 kts 312°
2026-05-04 05:38 14.52175 121.00846 82 ft 0 kts 314°
2026-05-04 05:42 14.52176 121.00845 82 ft 0 kts 314°
2026-05-04 05:42 14.52185 121.00835 82 ft 2 kts 315°
2026-05-04 05:42 14.52205 121.00816 82 ft 4 kts 315°
2026-05-04 05:43 14.52218 121.00780 82 ft 6 kts 261°
2026-05-04 05:43 14.52188 121.00742 82 ft 3 kts 218°
2026-05-04 05:43 14.52164 121.00747 82 ft 5 kts 140°
2026-05-04 05:45 14.51722 121.01208 82 ft 18 kts 135°
2026-05-04 05:45 14.51628 121.01305 82 ft 19 kts 135°
2026-05-04 05:47 14.51124 121.01826 82 ft 0 kts 135°
2026-05-04 05:47 14.51120 121.01831 82 ft 1 kts 135°
2026-05-04 05:48 14.51105 121.01846 82 ft 3 kts 135°
2026-05-04 05:48 14.51078 121.01862 82 ft 5 kts 168°
2026-05-04 05:48 14.51042 121.01843 82 ft 7 kts 235°
2026-05-04 05:48 14.51033 121.01789 82 ft 8 kts 287°
2026-05-04 05:49 14.51057 121.01755 82 ft 0 kts 316°
2026-05-04 05:51 14.54247 120.98498 1833 ft 208 kts 321°
2026-05-04 05:51 14.55289 120.97446 2449 ft 210 kts 320°
2026-05-04 05:52 14.56387 120.96356 2805 ft 229 kts 320°
2026-05-04 05:52 14.57585 120.95182 3237 ft 246 kts 320°
2026-05-04 05:52 14.58867 120.93882 3671 ft 265 kts 313°
2026-05-04 05:52 14.59718 120.92096 4136 ft 286 kts 283°
2026-05-04 05:53 14.59674 120.90044 4857 ft 292 kts 255°
2026-05-04 05:54 14.49861 120.81294 10071 ft 299 kts 160°
2026-05-04 05:55 14.47842 120.81929 10546 ft 311 kts 161°
2026-05-04 05:55 14.45688 120.82567 10884 ft 328 kts 162°
2026-05-04 05:55 14.43409 120.83166 11419 ft 337 kts 164°
2026-05-04 05:55 14.41092 120.83725 12082 ft 339 kts 165°
2026-05-04 05:56 14.38792 120.84254 12730 ft 341 kts 166°
2026-05-04 05:56 14.36418 120.84784 13385 ft 343 kts 166°
2026-05-04 05:56 14.34041 120.85304 14010 ft 346 kts 166°
2026-05-04 05:56 14.31661 120.85819 14600 ft 348 kts 166°
2026-05-04 05:57 14.29261 120.86337 15189 ft 351 kts 167°
2026-05-04 05:57 14.26828 120.86858 15783 ft 353 kts 167°
2026-05-04 05:57 14.24355 120.87388 16342 ft 356 kts 167°
2026-05-04 05:57 14.21887 120.87917 16887 ft 359 kts 167°
2026-05-04 05:58 14.19389 120.88451 17435 ft 362 kts 167°
2026-05-04 05:58 14.16853 120.88993 17938 ft 365 kts 167°
2026-05-04 05:58 14.14333 120.89533 18430 ft 367 kts 167°
2026-05-04 05:58 14.11759 120.90083 18926 ft 369 kts 167°
2026-05-04 05:59 14.09212 120.90629 19406 ft 372 kts 167°
2026-05-04 05:59 14.06594 120.91189 19901 ft 374 kts 167°
2026-05-04 05:59 14.04037 120.91736 20388 ft 376 kts 167°
2026-05-04 05:59 14.01460 120.92287 20852 ft 378 kts 167°
2026-05-04 06:00 13.98847 120.92845 21302 ft 380 kts 167°
2026-05-04 06:00 13.96207 120.93410 21750 ft 382 kts 167°
2026-05-04 06:00 13.93558 120.93975 22163 ft 385 kts 167°
2026-05-04 06:00 13.90911 120.94540 22567 ft 387 kts 167°
2026-05-04 06:01 13.88411 120.95074 22952 ft 390 kts 167°
2026-05-04 06:01 13.85698 120.95654 23360 ft 392 kts 167°
2026-05-04 06:03 13.66492 120.99752 25995 ft 406 kts 168°
2026-05-04 06:03 13.63698 121.00349 26336 ft 408 kts 168°
2026-05-04 06:05 13.43685 121.03265 28598 ft 420 kts 179°
2026-05-04 06:05 13.37710 121.03321 29231 ft 424 kts 179°
2026-05-04 06:05 13.34722 121.03349 29529 ft 427 kts 179°
2026-05-04 06:06 13.31741 121.03378 29835 ft 428 kts 179°
2026-05-04 06:06 13.28757 121.03407 30150 ft 430 kts 179°
2026-05-04 06:06 13.25744 121.03437 30457 ft 432 kts 179°
2026-05-04 06:06 13.22711 121.03467 30759 ft 434 kts 179°
2026-05-04 06:07 13.19664 121.03496 31061 ft 435 kts 179°
2026-05-04 06:07 13.16630 121.03525 31317 ft 438 kts 179°
2026-05-04 06:07 13.13556 121.03554 31583 ft 441 kts 179°
2026-05-04 06:07 13.10456 121.03584 31853 ft 443 kts 179°
2026-05-04 06:08 13.07359 121.03615 32113 ft 445 kts 179°
2026-05-04 06:08 13.04248 121.03647 32357 ft 447 kts 179°
2026-05-04 06:08 13.01144 121.03677 32603 ft 449 kts 179°
2026-05-04 06:08 12.97981 121.03709 32888 ft 450 kts 179°
2026-05-04 06:09 12.94781 121.03742 33229 ft 450 kts 179°
2026-05-04 06:09 12.91647 121.03774 33630 ft 449 kts 180°
2026-05-04 06:11 12.70292 121.03982 35820 ft 444 kts 180°
2026-05-04 06:11 12.67203 121.04013 36023 ft 445 kts 180°
2026-05-04 06:13 12.45322 121.04254 36868 ft 450 kts 178°
2026-05-04 06:14 12.28193 121.11727 36874 ft 457 kts 139°
2026-05-04 06:14 12.25862 121.13934 36876 ft 457 kts 138°
2026-05-04 06:15 12.21231 121.18403 36876 ft 457 kts 137°
2026-05-04 06:15 12.16594 121.22864 36874 ft 457 kts 138°
2026-05-04 06:16 12.11929 121.27331 36869 ft 457 kts 138°
2026-05-04 06:16 12.07284 121.31771 36857 ft 457 kts 138°
2026-05-04 06:17 12.02618 121.36226 36844 ft 458 kts 138°
2026-05-04 06:17 11.97924 121.40705 36834 ft 458 kts 138°
2026-05-04 06:18 11.93287 121.45126 36828 ft 457 kts 138°
2026-05-04 06:20 11.74838 121.62711 36838 ft 457 kts 138°
2026-05-04 06:21 11.63507 121.73490 36836 ft 457 kts 138°
2026-05-04 06:22 11.58828 121.77932 36834 ft 457 kts 138°
2026-05-04 06:25 11.26096 122.08975 36855 ft 457 kts 138°
2026-05-04 06:26 11.21440 122.13387 36878 ft 457 kts 138°
2026-05-04 06:26 11.16758 122.17819 36897 ft 457 kts 138°
2026-05-04 06:27 11.05090 122.28865 36941 ft 456 kts 138°
2026-05-04 06:28 11.00445 122.33244 36931 ft 456 kts 138°
2026-05-04 06:28 10.95765 122.37662 36911 ft 456 kts 137°
2026-05-04 06:29 10.91065 122.42098 36882 ft 456 kts 137°
2026-05-04 06:29 10.86748 122.45914 36864 ft 455 kts 142°
2026-05-04 06:30 10.83010 122.48682 36848 ft 455 kts 147°
2026-05-04 06:30 10.77546 122.51974 36830 ft 454 kts 153°
2026-05-04 06:31 10.71833 122.54745 36821 ft 453 kts 155°
2026-05-04 06:31 10.66091 122.57458 36821 ft 453 kts 155°
2026-05-04 06:33 10.43068 122.68345 36823 ft 453 kts 155°
2026-05-04 06:34 10.37345 122.71048 36827 ft 453 kts 155°
2026-05-04 06:34 10.31619 122.73747 36822 ft 452 kts 155°
2026-05-04 06:36 10.08654 122.84567 36855 ft 452 kts 155°
2026-05-04 06:37 10.02915 122.87269 36870 ft 453 kts 155°
2026-05-04 06:37 9.97251 122.89937 36891 ft 453 kts 155°
2026-05-04 06:38 9.91500 122.92645 36906 ft 453 kts 155°
2026-05-04 06:40 9.68516 123.03449 36819 ft 450 kts 155°
2026-05-04 06:40 9.65682 123.04779 36220 ft 450 kts 155°
2026-05-04 06:40 9.62835 123.06115 35192 ft 454 kts 155°
2026-05-04 06:41 9.59926 123.07481 34027 ft 460 kts 155°
2026-05-04 06:41 9.57027 123.08842 32969 ft 464 kts 155°
2026-05-04 06:41 9.54119 123.10207 32217 ft 461 kts 155°
2026-05-04 06:41 9.51228 123.11564 31754 ft 453 kts 154°
2026-05-04 06:42 9.48357 123.12912 31274 ft 447 kts 154°
2026-05-04 06:42 9.45552 123.14230 30795 ft 441 kts 154°
2026-05-04 06:42 9.42789 123.15527 30317 ft 435 kts 154°
2026-05-04 06:44 9.24243 123.24226 27033 ft 403 kts 154°
2026-05-04 06:44 9.21684 123.25428 26625 ft 397 kts 154°
2026-05-04 06:44 9.19160 123.26612 26216 ft 397 kts 154°
2026-05-04 06:45 9.16668 123.27779 25774 ft 394 kts 154°
2026-05-04 06:45 9.14174 123.28921 25313 ft 391 kts 156°
2026-05-04 06:45 9.11610 123.29863 24852 ft 389 kts 161°
2026-05-04 06:45 9.09014 123.30547 24428 ft 386 kts 167°
2026-05-04 06:46 9.06352 123.31039 24048 ft 385 kts 168°
2026-05-04 06:46 9.03658 123.31494 23676 ft 394 kts 168°
2026-05-04 06:46 9.00970 123.31943 23305 ft 395 kts 168°
2026-05-04 06:46 8.98246 123.32398 22955 ft 392 kts 168°
2026-05-04 06:48 8.80007 123.35479 21344 ft 384 kts 168°
2026-05-04 06:48 8.77368 123.35926 21116 ft 383 kts 168°
2026-05-04 06:49 8.74713 123.36376 20880 ft 382 kts 168°
2026-05-04 06:50 8.55452 123.39644 14702 ft 427 kts 169°
2026-05-04 06:51 8.52484 123.40145 13878 ft 425 kts 169°
2026-05-04 06:51 8.49571 123.40637 13143 ft 421 kts 169°
2026-05-04 06:51 8.46714 123.41118 12417 ft 417 kts 169°
2026-05-04 06:51 8.43829 123.41603 11682 ft 412 kts 169°
2026-05-04 06:52 8.40979 123.42083 10949 ft 407 kts 169°
2026-05-04 06:52 8.38189 123.42553 10215 ft 402 kts 169°
2026-05-04 06:52 8.35450 123.43015 9490 ft 398 kts 169°
2026-05-04 06:52 8.32720 123.43477 8762 ft 393 kts 169°
2026-05-04 06:53 8.30026 123.43932 8038 ft 388 kts 169°
2026-05-04 06:53 8.27385 123.44379 7312 ft 385 kts 169°
2026-05-04 06:53 8.24752 123.44824 6579 ft 381 kts 169°
2026-05-04 06:53 8.22113 123.45270 5836 ft 377 kts 169°
2026-05-04 06:54 8.19527 123.45705 5094 ft 373 kts 169°
2026-05-04 06:54 8.16977 123.46137 4361 ft 370 kts 169°
2026-05-04 06:54 8.14418 123.46569 3640 ft 366 kts 169°
2026-05-04 06:54 8.11931 123.46988 3198 ft 354 kts 169°
2026-05-04 06:55 8.09551 123.47458 2927 ft 337 kts 165°
2026-05-04 06:55 8.07339 123.48105 2678 ft 323 kts 160°
2026-05-04 06:55 8.05259 123.48889 2447 ft 309 kts 158°
2026-05-04 06:55 8.03293 123.49667 2226 ft 295 kts 157°
2026-05-04 06:56 8.01448 123.50403 2058 ft 269 kts 158°
2026-05-04 06:57 7.91132 123.54487 2025 ft 216 kts 158°
2026-05-04 06:58 7.89726 123.55042 2022 ft 215 kts 157°
2026-05-04 06:58 7.88307 123.55601 2021 ft 215 kts 157°
2026-05-04 06:58 7.86901 123.56155 2021 ft 216 kts 157°
2026-05-04 06:58 7.85476 123.56685 2017 ft 216 kts 166°
2026-05-04 06:59 7.83963 123.56792 2016 ft 217 kts 187°
2026-05-04 06:59 7.82509 123.56366 2019 ft 218 kts 204°
2026-05-04 06:59 7.81147 123.55709 2013 ft 214 kts 206°
2026-05-04 06:59 7.79855 123.55051 2034 ft 196 kts 207°
2026-05-04 07:01 7.73878 123.50855 1924 ft 140 kts 274°
2026-05-04 07:01 7.73941 123.49890 1797 ft 138 kts 276°
2026-05-04 07:02 7.73983 123.48927 1683 ft 137 kts 273°
2026-05-04 07:02 7.73983 123.47957 1596 ft 137 kts 270°
2026-05-04 07:02 7.73953 123.46995 1595 ft 138 kts 269°
2026-05-04 07:02 7.73906 123.46020 1596 ft 138 kts 268°
2026-05-04 07:03 7.73854 123.45052 1597 ft 138 kts 272°
2026-05-04 07:03 7.74190 123.44161 1554 ft 136 kts 320°
2026-05-04 07:03 7.75033 123.43798 1524 ft 134 kts
2026-05-04 07:03 7.75953 123.43986 1430 ft 134 kts 21°
2026-05-04 07:04 7.76823 123.44321 1184 ft 132 kts 18°
2026-05-04 07:04 7.77705 123.44591 924 ft 132 kts 17°
2026-05-04 07:04 7.78592 123.44851 711 ft 131 kts 16°
2026-05-04 07:04 7.79479 123.45089 573 ft 132 kts 17°
2026-05-04 07:05 7.80361 123.45332 362 ft 131 kts 17°
2026-05-04 07:05 7.81242 123.45583 173 ft 130 kts 17°
2026-05-04 07:05 7.82103 123.45827 47 ft 126 kts 16°
2026-05-04 07:05 7.82767 123.46024 44 ft 62 kts 14°
2026-05-04 07:06 7.83061 123.46111 47 ft 15 kts 15°
2026-05-04 07:06 7.83148 123.46135 48 ft 11 kts 15°
2026-05-04 07:06 7.83200 123.46169 48 ft 6 kts 91°
2026-05-04 07:07 7.83162 123.46204 48 ft 8 kts 149°
2026-05-04 07:08 7.83067 123.46248 47 ft 0 kts 150°